Weather History for KBUF - September, 2013

Change the Weather History Date:

Tuesday, September 17, 2013

  Actual Average Record
Temperature  
Mean Temperature 52 °F 62 °F  
Max Temperature 67 °F 71 °F 86 °F (1955)
Min Temperature 37 °F 53 °F 33 °F (1959)
Degree Days  
Heating Degree Days 13 5  
Month to date heating degree days 86 48  
Since 1 July heating degree days 102 75  
Cooling Degree Days 0 1  
Month to date cooling degree days 44 42  
Year to date cooling degree days 596 529  
Growing Degree Days 2 (Base 50)    
Moisture  
Dew Point 41 °F    
Average Humidity 67    
Maximum Humidity 93    
Minimum Humidity 40    
Precipitation  
Precipitation 0.00 in 0.14 in 2.87 in (1976)
Month to date precipitation 0.74 2.06  
Year to date precipitation 28.37 27.22  
Snow  
Snow 0.00 in 0.00 in 0.00 in ()
Month to date snowfall 0.0 0.0  
Since 1 July snowfall 0.0 0.0  
Since 1 September snowfall 0.0 0.0  
Snow Depth 0.00 in    
Sea Level Pressure  
Sea Level Pressure 30.39 in    
Wind  
Wind Speed 4 mph (East)    
Max Wind Speed 12 mph    
Max Gust Speed 15 mph    
Visibility 10 miles    
Events      
T = Trace of Precipitation, MM = Missing Value Source: NWS Daily Summary

Daily Weather History Graph

Daily Weather History Graph

Search for Another Location

Airport or City:

Trip Planner

Search our weather history database for the weather conditions in past years. The results will help you decide how hot, cold, wet, or windy it might be!

Date:

Astronomy

Sep. 17, 2013 Rise Set
Actual Time 6:57 AM EDT 7:20 PM EDT
Civil Twilight 6:28 AM EDT 7:49 PM EDT
Nautical Twilight 5:55 AM EDT 8:22 PM EDT
Astronomical Twilight 5:20 AM EDT 8:56 PM EDT
Moon 6:08 PM EDT (9/17) 4:47 AM EDT (9/17)
Length of Visible Light 13h 20m
Length of Day
12h 23m
Waxing Gibbous, 96% of the Moon is Illuminated
Sep 17
Waxing Gibbous
Sep 19
Full
Sep 26
Last Quarter
Oct 4
New
Oct 11
First Quarter

Hourly Weather History & Observations

Time (EDT) Temp. Windchill Dew Point Humidity Pressure Visibility Wind Dir Wind Speed Gust Speed Precip Events Conditions
12:54 AM 42.1 °F - 39.9 °F 92% 30.38 in 10.0 mi Calm Calm - N/A   Clear
1:54 AM 41.0 °F - 39.0 °F 93% 30.39 in 10.0 mi Calm Calm - N/A   Clear
2:54 AM 39.9 °F - 37.9 °F 93% 30.39 in 10.0 mi Calm Calm - N/A   Clear
3:54 AM 39.9 °F - 37.9 °F 93% 30.40 in 10.0 mi Calm Calm - N/A   Clear
4:54 AM 39.0 °F 36.8 °F 37.0 °F 93% 30.40 in 10.0 mi ESE 3.5 mph - N/A   Clear
5:54 AM 37.9 °F - 36.0 °F 93% 30.42 in 10.0 mi Calm Calm - N/A   Clear
6:54 AM 37.9 °F 34.4 °F 36.0 °F 93% 30.43 in 10.0 mi ESE 4.6 mph - N/A   Clear
7:54 AM 39.9 °F 36.7 °F 37.9 °F 93% 30.45 in 10.0 mi SSE 4.6 mph - N/A   Partly Cloudy
8:54 AM 45.0 °F 42.6 °F 39.9 °F 82% 30.48 in 10.0 mi SE 4.6 mph - N/A   Partly Cloudy
9:54 AM 51.1 °F - 39.9 °F 66% 30.49 in 10.0 mi ESE 4.6 mph - N/A   Partly Cloudy
10:54 AM 54.0 °F - 42.1 °F 64% 30.48 in 10.0 mi East 8.1 mph - N/A   Partly Cloudy
11:54 AM 55.9 °F - 37.0 °F 49% 30.48 in 10.0 mi SE 10.4 mph - N/A   Partly Cloudy
12:54 PM 59.0 °F - 41.0 °F 51% 30.44 in 10.0 mi ESE 6.9 mph - N/A   Clear
1:54 PM 62.1 °F - 41.0 °F 46% 30.41 in 10.0 mi Variable 4.6 mph - N/A   Clear
2:54 PM 64.0 °F - 39.9 °F 41% 30.38 in 10.0 mi NE 8.1 mph - N/A   Clear
3:54 PM 64.9 °F - 41.0 °F 42% 30.36 in 10.0 mi NE 5.8 mph - N/A   Clear
4:54 PM 64.9 °F - 42.1 °F 43% 30.34 in 10.0 mi ENE 5.8 mph - N/A   Clear
5:54 PM 66.0 °F - 41.0 °F 40% 30.32 in 10.0 mi ENE 6.9 mph - N/A   Clear
6:54 PM 62.1 °F - 45.0 °F 53% 30.31 in 10.0 mi ENE 6.9 mph - N/A   Partly Cloudy
7:54 PM 57.0 °F - 45.0 °F 64% 30.31 in 10.0 mi NE 5.8 mph - N/A   Partly Cloudy
8:54 PM 55.0 °F - 45.0 °F 69% 30.31 in 10.0 mi East 4.6 mph - N/A   Partly Cloudy
9:54 PM 53.1 °F - 44.1 °F 71% 30.30 in 10.0 mi ENE 3.5 mph - N/A   Clear
10:54 PM 52.0 °F - 43.0 °F 71% 30.30 in 10.0 mi Calm Calm - N/A   Clear
11:54 PM 50.0 °F - 43.0 °F 77% 30.29 in 10.0 mi SSE 4.6 mph - N/A   Clear